• In Uzbekistan
  • List of Countries
  • For 7 days
  • Water Temperature
  • Weather Map
  • Weather Widgets
  • user-avatar
    Login

    Hourly Weather Dangriga

    Today, 1 June, Monday

    Time Temperature Precipitation Wind Pressure Humidity
    00:00 +25°C° 1.1 mm 2 mps 757 mmHg 97%
    01:00 +25°C° 1 mm 2 mps 757 mmHg 97%
    02:00 +25°C° 1 mm 2 mps 756 mmHg 98%
    03:00 +25°C° 1 mm 1 mps 756 mmHg 98%
    04:00 +25°C° 1.2 mm 1 mps 756 mmHg 98%
    05:00 +25°C° 1.2 mm 1 mps 757 mmHg 98%
    06:00 +25°C° 1.2 mm 1 mps 757 mmHg 99%
    07:00 +27°C° 0.2 mm 1 mps 757 mmHg 90%
    08:00 +29°C° 0.2 mm 1 mps 758 mmHg 82%
    09:00 +31°C° 0.2 mm 1 mps 758 mmHg 73%
    10:00 +32°C° 0.1 mm 1 mps 758 mmHg 69%
    11:00 +33°C° 0.1 mm 1 mps 757 mmHg 65%
    12:00 +35°C° 0.1 mm 2 mps 757 mmHg 61%
    13:00 +35°C° 0.1 mm 2 mps 757 mmHg 64%
    14:00 +35°C° 0.1 mm 2 mps 756 mmHg 67%
    15:00 +34°C° 0.1 mm 3 mps 755 mmHg 69%
    16:00 +33°C° 0 mm 3 mps 756 mmHg 76%
    17:00 +30°C° 0 mm 3 mps 756 mmHg 82%
    18:00 +29°C° 0 mm 4 mps 756 mmHg 89%
    19:00 +28°C° 1.3 mm 4 mps 756 mmHg 91%
    20:00 +28°C° 1.3 mm 5 mps 757 mmHg 94%
    21:00 +27°C° 1.3 mm 5 mps 757 mmHg 97%
    22:00 +27°C° 3.4 mm 6 mps 757 mmHg 97%
    23:00 +27°C° 3.4 mm 6 mps 757 mmHg 97%

    Tomorrow, 2 June, Tuesday

    Time Temperature Precipitation Wind Pressure Humidity
    00:00 +27°C° 3.4 mm 6 mps 757 mmHg 97%
    01:00 +27°C° 2.7 mm 6 mps 757 mmHg 98%
    02:00 +27°C° 2.7 mm 6 mps 756 mmHg 98%
    03:00 +27°C° 2.7 mm 5 mps 756 mmHg 99%
    04:00 +27°C° 0.9 mm 5 mps 756 mmHg 99%
    05:00 +27°C° 0.9 mm 5 mps 756 mmHg 99%
    06:00 +27°C° 0.9 mm 5 mps 757 mmHg 99%
    07:00 +27°C° 1.1 mm 5 mps 757 mmHg 99%
    08:00 +27°C° 1.1 mm 6 mps 757 mmHg 99%
    09:00 +27°C° 1.1 mm 6 mps 758 mmHg 98%
    10:00 +28°C° 1.8 mm 5 mps 757 mmHg 98%
    11:00 +28°C° 1.8 mm 5 mps 757 mmHg 97%
    12:00 +28°C° 1.8 mm 4 mps 757 mmHg 96%
    13:00 +30°C° 1.4 mm 5 mps 756 mmHg 87%
    14:00 +32°C° 1.4 mm 5 mps 756 mmHg 78%
    15:00 +34°C° 1.4 mm 5 mps 755 mmHg 69%
    16:00 +32°C° 2.6 mm 6 mps 755 mmHg 78%
    17:00 +29°C° 2.6 mm 6 mps 755 mmHg 87%
    18:00 +28°C° 2.6 mm 7 mps 756 mmHg 96%
    19:00 +28°C° 3.2 mm 7 mps 756 mmHg 97%
    20:00 +27°C° 3.2 mm 7 mps 756 mmHg 98%
    21:00 +27°C° 3.2 mm 6 mps 757 mmHg 99%
    22:00 +27°C° 9.2 mm 6 mps 757 mmHg 99%
    23:00 +27°C° 9.2 mm 7 mps 757 mmHg 99%

    Day after tomorrow, 3 June, Wednesday

    Time Temperature Precipitation Wind Pressure Humidity
    00:00 +27°C° 9.2 mm 7 mps 756 mmHg 99%
    01:00 +27°C° 2.3 mm 6 mps 756 mmHg 99%
    02:00 +27°C° 2.3 mm 6 mps 756 mmHg 99%
    03:00 +27°C° 2.3 mm 5 mps 755 mmHg 99%
    04:00 +27°C° 0.1 mm 5 mps 755 mmHg 99%
    05:00 +27°C° 0.1 mm 5 mps 755 mmHg 99%
    06:00 +27°C° 0.1 mm 5 mps 755 mmHg 99%
    07:00 +27°C° 0.7 mm 5 mps 755 mmHg 98%
    08:00 +28°C° 0.7 mm 5 mps 756 mmHg 97%
    09:00 +29°C° 0.7 mm 6 mps 756 mmHg 96%
    10:00 +29°C° 0.6 mm 6 mps 756 mmHg 94%
    11:00 +29°C° 0.6 mm 6 mps 755 mmHg 93%
    12:00 +30°C° 0.6 mm 6 mps 755 mmHg 92%
    13:00 +30°C° 0.5 mm 6 mps 754 mmHg 92%
    14:00 +30°C° 0.5 mm 6 mps 754 mmHg 92%
    15:00 +29°C° 0.5 mm 6 mps 753 mmHg 92%
    16:00 +29°C° 0.2 mm 6 mps 753 mmHg 92%
    17:00 +29°C° 0.2 mm 7 mps 753 mmHg 92%
    18:00 +29°C° 0.2 mm 7 mps 753 mmHg 92%
    19:00 +28°C° 1.8 mm 7 mps 754 mmHg 94%
    20:00 +28°C° 1.8 mm 7 mps 754 mmHg 95%
    21:00 +27°C° 1.8 mm 7 mps 754 mmHg 97%
    22:00 +27°C° 3.5 mm 6 mps 754 mmHg 97%
    23:00 +27°C° 3.5 mm 5 mps 754 mmHg 98%

    4 June, Thursday

    Time Temperature Precipitation Wind Pressure Humidity
    00:00 +27°C° 3.5 mm 4 mps 754 mmHg 99%
    01:00 +27°C° 0.7 mm 4 mps 754 mmHg 99%
    02:00 +27°C° 0.7 mm 5 mps 754 mmHg 99%
    03:00 +27°C° 0.7 mm 5 mps 753 mmHg 99%
    04:00 +27°C° 1 mm 5 mps 754 mmHg 99%
    05:00 +27°C° 1 mm 4 mps 754 mmHg 99%
    06:00 +27°C° 1 mm 4 mps 754 mmHg 99%
    07:00 +27°C° 0.7 mm 4 mps 754 mmHg 97%
    08:00 +28°C° 0.7 mm 5 mps 755 mmHg 95%
    09:00 +29°C° 0.7 mm 5 mps 755 mmHg 94%
    10:00 +30°C° 1.9 mm 5 mps 755 mmHg 91%
    11:00 +30°C° 1.9 mm 6 mps 755 mmHg 88%
    12:00 +32°C° 1.9 mm 6 mps 754 mmHg 85%
    13:00 +32°C° 1.6 mm 7 mps 754 mmHg 87%
    14:00 +30°C° 1.6 mm 7 mps 753 mmHg 89%
    15:00 +31°C° 1.6 mm 8 mps 753 mmHg 92%
    16:00 +29°C° 2.5 mm 7 mps 753 mmHg 93%
    17:00 +28°C° 2.5 mm 7 mps 753 mmHg 95%
    18:00 +28°C° 2.5 mm 7 mps 753 mmHg 97%
    19:00 +27°C° 2.4 mm 7 mps 754 mmHg 97%
    20:00 +27°C° 2.4 mm 7 mps 754 mmHg 97%
    21:00 +27°C° 2.4 mm 6 mps 755 mmHg 98%
    22:00 +27°C° 0.8 mm 6 mps 754 mmHg 98%
    23:00 +27°C° 0.8 mm 6 mps 754 mmHg 98%

    5 June, Friday

    Time Temperature Precipitation Wind Pressure Humidity
    00:00 +26°C° 0.8 mm 5 mps 754 mmHg 99%
    01:00 +27°C° 0.5 mm 5 mps 754 mmHg 99%
    02:00 +27°C° 0.5 mm 5 mps 753 mmHg 98%
    03:00 +27°C° 0.5 mm 5 mps 753 mmHg 98%
    04:00 +27°C° 1.7 mm 4 mps 753 mmHg 98%
    05:00 +27°C° 1.7 mm 4 mps 754 mmHg 98%
    06:00 +27°C° 1.7 mm 4 mps 754 mmHg 98%
    07:00 +28°C° 0.7 mm 4 mps 754 mmHg 96%
    08:00 +29°C° 0.7 mm 4 mps 755 mmHg 95%
    09:00 +29°C° 0.7 mm 4 mps 755 mmHg 94%
    10:00 +30°C° 0.2 mm 4 mps 755 mmHg 84%
    11:00 +33°C° 0.2 mm 3 mps 755 mmHg 74%
    12:00 +34°C° 0.2 mm 3 mps 754 mmHg 65%
    13:00 +33°C° 0.3 mm 3 mps 754 mmHg 73%
    14:00 +31°C° 0.3 mm 2 mps 754 mmHg 81%
    15:00 +30°C° 0.3 mm 1 mps 753 mmHg 89%
    16:00 +29°C° 0.4 mm 1 mps 754 mmHg 92%
    17:00 +28°C° 0.4 mm 1 mps 754 mmHg 94%
    18:00 +27°C° 0.4 mm 1 mps 754 mmHg 97%
    19:00 +27°C° 0.3 mm 2 mps 754 mmHg 97%
    20:00 +26°C° 0.3 mm 2 mps 755 mmHg 98%
    21:00 +26°C° 0.3 mm 3 mps 755 mmHg 98%
    22:00 +26°C° 0.3 mm 2 mps 755 mmHg 98%
    23:00 +26°C° 0.3 mm 2 mps 755 mmHg 98%

    6 June, Saturday

    Time Temperature Precipitation Wind Pressure Humidity
    00:00 +26°C° 0.3 mm 1 mps 754 mmHg 98%
    01:00 +25°C° 0 mm 1 mps 754 mmHg 98%
    02:00 +25°C° 0 mm 1 mps 754 mmHg 97%
    03:00 +25°C° 0 mm 1 mps 753 mmHg 97%
    04:00 +26°C° 0 mm 1 mps 753 mmHg 96%
    05:00 +26°C° 0 mm 2 mps 753 mmHg 96%
    06:00 +26°C° 0 mm 2 mps 753 mmHg 96%
    07:00 +27°C° 0 mm 2 mps 754 mmHg 95%
    08:00 +27°C° 0 mm 2 mps 754 mmHg 93%
    09:00 +28°C° 0 mm 2 mps 755 mmHg 92%
    10:00 +29°C° 0 mm 3 mps 754 mmHg 86%
    11:00 +30°C° 0 mm 3 mps 754 mmHg 81%
    12:00 +30°C° 0 mm 3 mps 754 mmHg 75%
    13:00 +31°C° 0.1 mm 3 mps 753 mmHg 74%
    14:00 +33°C° 0.1 mm 4 mps 753 mmHg 72%
    15:00 +34°C° 0.1 mm 4 mps 753 mmHg 71%
    16:00 +32°C° 0.3 mm 4 mps 753 mmHg 80%
    17:00 +29°C° 0.3 mm 5 mps 753 mmHg 88%
    18:00 +27°C° 0.3 mm 5 mps 754 mmHg 97%
    19:00 +27°C° 0.1 mm 5 mps 754 mmHg 97%
    20:00 +27°C° 0.1 mm 5 mps 754 mmHg 97%
    21:00 +27°C° 0.1 mm 6 mps 755 mmHg 97%
    22:00 +27°C° 0.6 mm 5 mps 755 mmHg 97%
    23:00 +26°C° 0.6 mm 5 mps 755 mmHg 97%
    Show more